Time,TemperatureF,DewpointF,PressureIn,WindDirection,WindDirectionDegrees,WindSpeedMPH,WindSpeedGustMPH,Humidity,HourlyPrecipIn,Conditions,Clouds,dailyrainin,SoftwareType,DateUTC
2013-06-09 00:01:00,62.7,54.7,30.04,SSW,212,1.0,1.0,75,0.00,,,0.00,Wunderground v.1.15,2013-06-09 04:01:00,
2013-06-09 00:02:00,62.7,54.7,30.04,SSW,212,1.0,1.0,75,0.00,,,0.00,Wunderground v.1.15,2013-06-09 04:02:00,
2013-06-09 00:03:00,62.6,54.6,30.04,SSW,212,1.0,1.0,75,0.00,,,0.00,Wunderground v.1.15,2013-06-09 04:03:00,
2013-06-09 00:04:00,62.6,54.6,30.04,SSW,212,1.0,1.0,75,0.00,,,0.00,Wunderground v.1.15,2013-06-09 04:04:00,
2013-06-09 00:06:00,62.5,54.8,30.05,SSW,212,1.0,1.0,76,0.00,,,0.00,Wunderground v.1.15,2013-06-09 04:06:00,
2013-06-09 00:11:00,62.4,54.7,30.05,SSW,212,0.0,0.0,76,0.00,,,0.00,Wunderground v.1.15,2013-06-09 04:11:00,
2013-06-09 00:16:00,62.5,54.8,30.05,SSW,212,0.0,0.0,76,0.00,,,0.00,Wunderground v.1.15,2013-06-09 04:16:00,
2013-06-09 00:22:00,62.1,54.4,30.05,SSW,212,0.0,1.0,76,0.00,,,0.00,Wunderground v.1.15,2013-06-09 04:22:00,
2013-06-09 00:27:00,61.9,54.6,30.05,SSW,212,0.0,1.0,77,0.00,,,0.00,Wunderground v.1.15,2013-06-09 04:27:00,
2013-06-09 00:32:00,61.8,54.5,30.05,SSW,212,0.0,2.0,77,0.00,,,0.00,Wunderground v.1.15,2013-06-09 04:32:00,
2013-06-09 00:38:00,61.7,54.8,30.06,SSW,212,0.0,2.0,78,0.00,,,0.00,Wunderground v.1.15,2013-06-09 04:38:00,
2013-06-09 00:43:00,61.7,54.4,30.06,SSW,212,1.0,1.0,77,0.00,,,0.00,Wunderground v.1.15,2013-06-09 04:43:00,
2013-06-09 00:48:00,61.3,54.4,30.06,SSW,212,1.0,1.0,78,0.00,,,0.00,Wunderground v.1.15,2013-06-09 04:48:00,
2013-06-09 00:53:00,60.4,54.2,30.06,SSW,212,0.0,1.0,80,0.00,,,0.00,Wunderground v.1.15,2013-06-09 04:53:00,
2013-06-09 00:59:00,60.5,54.3,30.06,SSW,212,1.0,2.0,80,0.00,,,0.00,Wunderground v.1.15,2013-06-09 04:59:00,
2013-06-09 01:04:00,60.3,54.4,30.06,SSW,212,1.0,1.0,81,0.00,,,0.00,Wunderground v.1.15,2013-06-09 05:04:00,
2013-06-09 01:09:00,60.3,54.4,30.06,SSW,212,0.0,1.0,81,0.00,,,0.00,Wunderground v.1.15,2013-06-09 05:09:00,
2013-06-09 01:15:00,60.2,54.0,30.06,SSW,212,1.0,1.0,80,0.00,,,0.00,Wunderground v.1.15,2013-06-09 05:15:00,
2013-06-09 01:20:00,59.7,53.9,30.06,SSW,212,1.0,2.0,81,0.00,,,0.00,Wunderground v.1.15,2013-06-09 05:20:00,
2013-06-09 01:25:00,59.4,53.9,30.06,SSW,212,1.0,1.0,82,0.00,,,0.00,Wunderground v.1.15,2013-06-09 05:25:00,
2013-06-09 01:30:00,59.2,54.0,30.06,SSW,212,0.0,1.0,83,0.00,,,0.00,Wunderground v.1.15,2013-06-09 05:30:00,
2013-06-09 01:36:00,59.2,54.0,30.06,SSW,212,0.0,0.0,83,0.00,,,0.00,Wunderground v.1.15,2013-06-09 05:36:00,
2013-06-09 01:41:00,59.0,53.8,30.06,SSW,212,0.0,0.0,83,0.00,,,0.00,Wunderground v.1.15,2013-06-09 05:41:00,
2013-06-09 01:46:00,58.5,53.7,30.06,SSW,212,0.0,1.0,84,0.00,,,0.00,Wunderground v.1.15,2013-06-09 05:46:00,
2013-06-09 01:52:00,58.4,53.9,30.06,SSW,212,0.0,0.0,85,0.00,,,0.00,Wunderground v.1.15,2013-06-09 05:52:00,
2013-06-09 01:57:00,58.6,53.8,30.06,SSW,212,0.0,0.0,84,0.00,,,0.00,Wunderground v.1.15,2013-06-09 05:57:00,
2013-06-09 02:02:00,58.7,53.9,30.06,SSW,212,0.0,1.0,84,0.00,,,0.00,Wunderground v.1.15,2013-06-09 06:02:00,
2013-06-09 02:07:00,58.6,54.1,30.06,SSW,212,0.0,1.0,85,0.00,,,0.00,Wunderground v.1.15,2013-06-09 06:07:00,
2013-06-09 02:13:00,58.3,53.8,30.06,SSW,212,0.0,0.0,85,0.00,,,0.00,Wunderground v.1.15,2013-06-09 06:13:00,
2013-06-09 02:18:00,58.4,53.9,30.06,SSW,212,0.0,1.0,85,0.00,,,0.00,Wunderground v.1.15,2013-06-09 06:18:00,
2013-06-09 02:24:00,58.4,53.9,30.06,SSW,212,0.0,1.0,85,0.00,,,0.00,Wunderground v.1.15,2013-06-09 06:24:00,
2013-06-09 02:29:00,58.6,54.1,30.06,SSW,212,0.0,1.0,85,0.00,,,0.00,Wunderground v.1.15,2013-06-09 06:29:00,
2013-06-09 02:34:00,58.5,54.0,30.06,SSW,212,1.0,1.0,85,0.00,,,0.00,Wunderground v.1.15,2013-06-09 06:34:00,
2013-06-09 02:40:00,58.0,53.5,30.06,SSW,212,1.0,2.0,85,0.00,,,0.00,Wunderground v.1.15,2013-06-09 06:40:00,
2013-06-09 02:45:00,58.1,53.6,30.06,SSW,212,1.0,1.0,85,0.00,,,0.00,Wunderground v.1.15,2013-06-09 06:45:00,
2013-06-09 02:50:00,57.7,53.5,30.06,SSW,212,1.0,1.0,86,0.00,,,0.00,Wunderground v.1.15,2013-06-09 06:50:00,
2013-06-09 02:56:00,58.0,53.8,30.06,SSW,212,0.0,1.0,86,0.00,,,0.00,Wunderground v.1.15,2013-06-09 06:56:00,
2013-06-09 03:01:00,58.1,53.9,30.06,SSW,212,1.0,2.0,86,0.00,,,0.00,Wunderground v.1.15,2013-06-09 07:01:00,
2013-06-09 03:07:00,58.2,53.7,30.06,SSW,212,1.0,2.0,85,0.00,,,0.00,Wunderground v.1.15,2013-06-09 07:07:00,
2013-06-09 03:13:00,58.0,53.5,30.06,SSW,212,0.0,1.0,85,0.00,,,0.00,Wunderground v.1.15,2013-06-09 07:13:00,
2013-06-09 03:18:00,57.9,53.7,30.06,SSW,212,0.0,1.0,86,0.00,,,0.00,Wunderground v.1.15,2013-06-09 07:18:00,
2013-06-09 03:24:00,57.5,53.3,30.06,SSW,212,0.0,0.0,86,0.00,,,0.00,Wunderground v.1.15,2013-06-09 07:24:00,
2013-06-09 03:29:00,57.0,53.2,30.07,SSW,212,0.0,0.0,87,0.00,,,0.00,Wunderground v.1.15,2013-06-09 07:29:00,
2013-06-09 03:34:00,57.2,53.7,30.07,SSW,212,0.0,1.0,88,0.00,,,0.00,Wunderground v.1.15,2013-06-09 07:34:00,
2013-06-09 03:39:00,57.6,53.8,30.07,SSW,212,0.0,1.0,87,0.00,,,0.00,Wunderground v.1.15,2013-06-09 07:39:00,
2013-06-09 03:45:00,57.9,54.1,30.07,SSW,212,0.0,0.0,87,0.00,,,0.00,Wunderground v.1.15,2013-06-09 07:45:00,
2013-06-09 03:50:00,57.8,54.0,30.07,SSW,212,0.0,1.0,87,0.00,,,0.00,Wunderground v.1.15,2013-06-09 07:50:00,
2013-06-09 03:55:00,58.1,53.9,30.07,SSW,212,1.0,2.0,86,0.00,,,0.00,Wunderground v.1.15,2013-06-09 07:55:00,
2013-06-09 04:00:00,58.1,53.9,30.07,SSW,212,0.0,0.0,86,0.00,,,0.00,Wunderground v.1.15,2013-06-09 08:00:00,
2013-06-09 04:06:00,58.1,53.9,30.07,SSW,212,0.0,0.0,86,0.00,,,0.00,Wunderground v.1.15,2013-06-09 08:06:00,
2013-06-09 04:12:00,58.5,54.0,30.07,SSW,212,0.0,0.0,85,0.00,,,0.00,Wunderground v.1.15,2013-06-09 08:12:00,
2013-06-09 04:17:00,58.7,54.2,30.07,SSW,212,0.0,1.0,85,0.00,,,0.00,Wunderground v.1.15,2013-06-09 08:17:00,
2013-06-09 04:23:00,58.9,54.1,30.08,SSW,212,0.0,0.0,84,0.00,,,0.00,Wunderground v.1.15,2013-06-09 08:23:00,
2013-06-09 04:28:00,58.8,54.0,30.07,SSW,212,0.0,2.0,84,0.00,,,0.00,Wunderground v.1.15,2013-06-09 08:28:00,
2013-06-09 04:33:00,58.6,54.1,30.07,SSW,212,1.0,2.0,85,0.00,,,0.00,Wunderground v.1.15,2013-06-09 08:33:00,
2013-06-09 04:38:00,58.8,54.3,30.08,SSW,212,1.0,2.0,85,0.00,,,0.00,Wunderground v.1.15,2013-06-09 08:38:00,
2013-06-09 04:43:00,59.0,54.2,30.07,SSW,212,0.0,1.0,84,0.00,,,0.00,Wunderground v.1.15,2013-06-09 08:43:00,
2013-06-09 04:49:00,59.2,54.4,30.08,SSW,212,0.0,2.0,84,0.00,,,0.00,Wunderground v.1.15,2013-06-09 08:49:00,
2013-06-09 04:54:00,59.0,54.2,30.08,SSW,212,0.0,1.0,84,0.00,,,0.00,Wunderground v.1.15,2013-06-09 08:54:00,
2013-06-09 04:59:00,58.8,54.0,30.08,SSW,212,1.0,2.0,84,0.00,,,0.00,Wunderground v.1.15,2013-06-09 08:59:00,
2013-06-09 05:05:00,58.9,54.1,30.07,SSW,212,1.0,1.0,84,0.00,,,0.00,Wunderground v.1.15,2013-06-09 09:05:00,
2013-06-09 05:11:00,58.9,54.1,30.07,SSW,212,1.0,1.0,84,0.00,,,0.00,Wunderground v.1.15,2013-06-09 09:11:00,
2013-06-09 05:16:00,58.9,54.1,30.08,SSW,212,1.0,2.0,84,0.00,,,0.00,Wunderground v.1.15,2013-06-09 09:16:00,
2013-06-09 05:22:00,58.9,54.1,30.08,SSW,212,1.0,1.0,84,0.00,,,0.00,Wunderground v.1.15,2013-06-09 09:22:00,
2013-06-09 05:27:00,58.7,53.9,30.07,SSW,212,1.0,2.0,84,0.00,,,0.00,Wunderground v.1.15,2013-06-09 09:27:00,
2013-06-09 05:32:00,58.7,53.9,30.07,SSW,212,1.0,2.0,84,0.00,,,0.00,Wunderground v.1.15,2013-06-09 09:32:00,
2013-06-09 05:38:00,58.7,53.9,30.07,SSW,212,1.0,2.0,84,0.00,,,0.00,Wunderground v.1.15,2013-06-09 09:38:00,
2013-06-09 05:43:00,58.8,54.0,30.07,SSW,212,1.0,2.0,84,0.00,,,0.00,Wunderground v.1.15,2013-06-09 09:43:00,
2013-06-09 05:48:00,58.6,53.8,30.08,SSW,212,1.0,2.0,84,0.00,,,0.00,Wunderground v.1.15,2013-06-09 09:48:00,
2013-06-09 05:54:00,58.3,53.5,30.07,SSW,212,0.0,1.0,84,0.00,,,0.00,Wunderground v.1.15,2013-06-09 09:54:00,
2013-06-09 05:59:00,58.3,53.8,30.07,SSW,212,0.0,1.0,85,0.00,,,0.00,Wunderground v.1.15,2013-06-09 09:59:00,
2013-06-09 06:05:00,58.2,53.7,30.07,SSW,212,0.0,0.0,85,0.00,,,0.00,Wunderground v.1.15,2013-06-09 10:05:00,
2013-06-09 06:10:00,57.6,53.1,30.08,SSW,212,0.0,1.0,85,0.00,,,0.00,Wunderground v.1.15,2013-06-09 10:10:00,
2013-06-09 06:15:00,57.1,53.3,30.07,SSW,212,1.0,1.0,87,0.00,,,0.00,Wunderground v.1.15,2013-06-09 10:15:00,
2013-06-09 06:21:00,56.9,53.1,30.07,SSW,212,2.0,2.0,87,0.00,,,0.00,Wunderground v.1.15,2013-06-09 10:21:00,
2013-06-09 06:27:00,57.5,53.7,30.08,SSW,212,1.0,2.0,87,0.00,,,0.00,Wunderground v.1.15,2013-06-09 10:27:00,
2013-06-09 06:32:00,58.0,53.5,30.08,SSW,212,1.0,1.0,85,0.00,,,0.00,Wunderground v.1.15,2013-06-09 10:32:00,
2013-06-09 06:37:00,58.2,53.4,30.08,SSW,212,1.0,2.0,84,0.00,,,0.00,Wunderground v.1.15,2013-06-09 10:37:00,
2013-06-09 06:43:00,58.5,53.4,30.08,SSW,212,1.0,1.0,83,0.00,,,0.00,Wunderground v.1.15,2013-06-09 10:43:00,
2013-06-09 06:49:00,58.6,53.1,30.08,SSW,212,1.0,1.0,82,0.00,,,0.00,Wunderground v.1.15,2013-06-09 10:49:00,
2013-06-09 06:54:00,59.1,53.6,30.08,SSW,212,1.0,3.0,82,0.00,,,0.00,Wunderground v.1.15,2013-06-09 10:54:00,
2013-06-09 07:00:00,59.4,53.6,30.09,SSW,212,2.0,2.0,81,0.00,,,0.00,Wunderground v.1.15,2013-06-09 11:00:00,
2013-06-09 07:06:00,59.6,53.8,30.08,SSW,212,1.0,3.0,81,0.00,,,0.00,Wunderground v.1.15,2013-06-09 11:06:00,
2013-06-09 07:12:00,59.9,53.7,30.09,SSW,212,2.0,3.0,80,0.00,,,0.00,Wunderground v.1.15,2013-06-09 11:12:00,
2013-06-09 07:17:00,60.2,53.7,30.08,SSW,212,2.0,3.0,79,0.00,,,0.00,Wunderground v.1.15,2013-06-09 11:17:00,
2013-06-09 07:22:00,60.5,53.6,30.09,SSW,212,2.0,3.0,78,0.00,,,0.00,Wunderground v.1.15,2013-06-09 11:22:00,
2013-06-09 07:28:00,61.0,53.7,30.09,SSW,212,2.0,3.0,77,0.00,,,0.00,Wunderground v.1.15,2013-06-09 11:28:00,
2013-06-09 07:34:00,61.4,54.1,30.09,SSW,212,1.0,3.0,77,0.00,,,0.00,Wunderground v.1.15,2013-06-09 11:34:00,
2013-06-09 07:39:00,61.5,53.9,30.09,SSW,212,2.0,4.0,76,0.00,,,0.00,Wunderground v.1.15,2013-06-09 11:39:00,
2013-06-09 07:44:00,61.8,54.2,30.09,SSW,212,2.0,2.0,76,0.00,,,0.00,Wunderground v.1.15,2013-06-09 11:44:00,
2013-06-09 07:50:00,62.1,53.7,30.10,South,171,2.0,2.0,74,0.00,,,0.00,Wunderground v.1.15,2013-06-09 11:50:00,
2013-06-09 07:56:00,62.3,53.9,30.09,SE,131,3.0,7.0,74,0.00,,,0.00,Wunderground v.1.15,2013-06-09 11:56:00,
2013-06-09 08:01:00,62.2,53.8,30.09,SE,131,4.0,4.0,74,0.00,,,0.00,Wunderground v.1.15,2013-06-09 12:01:00,
2013-06-09 08:06:00,62.3,54.3,30.09,SE,131,3.0,4.0,75,0.00,,,0.00,Wunderground v.1.15,2013-06-09 12:06:00,
2013-06-09 08:12:00,62.4,54.4,30.09,SE,131,3.0,3.0,75,0.00,,,0.00,Wunderground v.1.15,2013-06-09 12:12:00,
2013-06-09 08:17:00,62.7,54.7,30.09,SE,131,3.0,4.0,75,0.00,,,0.00,Wunderground v.1.15,2013-06-09 12:17:00,
2013-06-09 08:23:00,63.0,54.9,30.09,SE,131,3.0,4.0,75,0.00,,,0.00,Wunderground v.1.15,2013-06-09 12:23:00,
2013-06-09 08:28:00,63.4,54.6,30.09,SE,131,3.0,6.0,73,0.00,,,0.00,Wunderground v.1.15,2013-06-09 12:28:00,
2013-06-09 08:33:00,63.5,54.7,30.09,SE,131,4.0,4.0,73,0.00,,,0.00,Wunderground v.1.15,2013-06-09 12:33:00,
2013-06-09 08:38:00,64.1,54.9,30.09,SE,131,4.0,4.0,72,0.00,,,0.00,Wunderground v.1.15,2013-06-09 12:38:00,
2013-06-09 08:44:00,64.8,54.8,30.08,SE,124,4.0,5.0,70,0.00,,,0.00,Wunderground v.1.15,2013-06-09 12:44:00,
2013-06-09 08:49:00,65.1,54.7,30.09,ESE,123,4.0,7.0,69,0.00,,,0.00,Wunderground v.1.15,2013-06-09 12:49:00,
2013-06-09 08:54:00,65.6,55.2,30.09,ESE,117,4.0,8.0,69,0.00,,,0.00,Wunderground v.1.15,2013-06-09 12:54:00,
2013-06-09 09:00:00,66.3,55.0,30.09,ESE,107,5.0,7.0,67,0.00,,,0.00,Wunderground v.1.15,2013-06-09 13:00:00,
2013-06-09 09:06:00,66.9,56.0,30.09,ESE,103,5.0,7.0,68,0.00,,,0.00,Wunderground v.1.15,2013-06-09 13:06:00,
2013-06-09 09:12:00,67.2,55.0,30.09,East,100,5.0,8.0,65,0.00,,,0.00,Wunderground v.1.15,2013-06-09 13:12:00,
2013-06-09 09:17:00,67.4,55.6,30.09,ESE,115,6.0,10.0,66,0.00,,,0.00,Wunderground v.1.15,2013-06-09 13:17:00,
2013-06-09 09:23:00,67.9,56.1,30.09,ESE,108,5.0,5.0,66,0.00,,,0.00,Wunderground v.1.15,2013-06-09 13:23:00,
2013-06-09 09:29:00,68.4,55.7,30.09,ESE,104,5.0,10.0,64,0.00,,,0.00,Wunderground v.1.15,2013-06-09 13:29:00,
2013-06-09 09:34:00,68.5,55.8,30.08,ESE,104,6.0,6.0,64,0.00,,,0.00,Wunderground v.1.15,2013-06-09 13:34:00,
2013-06-09 09:39:00,68.8,55.7,30.09,East,95,7.0,9.0,63,0.00,,,0.00,Wunderground v.1.15,2013-06-09 13:39:00,
2013-06-09 09:45:00,69.0,55.9,30.09,East,99,7.0,10.0,63,0.00,,,0.00,Wunderground v.1.15,2013-06-09 13:45:00,
2013-06-09 09:50:00,69.3,56.2,30.09,ESE,107,6.0,10.0,63,0.00,,,0.00,Wunderground v.1.15,2013-06-09 13:50:00,
2013-06-09 09:56:00,69.5,55.9,30.09,ESE,111,6.0,10.0,62,0.00,,,0.00,Wunderground v.1.15,2013-06-09 13:56:00,
2013-06-09 10:02:00,70.0,56.4,30.08,ESE,102,6.0,8.0,62,0.00,,,0.00,Wunderground v.1.15,2013-06-09 14:02:00,
2013-06-09 10:07:00,70.1,56.0,30.08,ESE,109,7.0,10.0,61,0.00,,,0.00,Wunderground v.1.15,2013-06-09 14:07:00,
2013-06-09 10:12:00,70.5,55.9,30.08,East,92,6.0,8.0,60,0.00,,,0.00,Wunderground v.1.15,2013-06-09 14:12:00,
2013-06-09 10:17:00,70.4,55.8,30.08,East,89,7.0,10.0,60,0.00,,,0.00,Wunderground v.1.15,2013-06-09 14:17:00,
2013-06-09 10:23:00,70.7,56.6,30.08,East,88,7.0,8.0,61,0.00,,,0.00,Wunderground v.1.15,2013-06-09 14:23:00,
2013-06-09 10:28:00,71.0,55.9,30.08,ENE,63,7.0,9.0,59,0.00,,,0.00,Wunderground v.1.15,2013-06-09 14:28:00,
2013-06-09 10:33:00,71.2,56.1,30.08,East,80,7.0,8.0,59,0.00,,,0.00,Wunderground v.1.15,2013-06-09 14:33:00,
2013-06-09 10:38:00,70.8,55.8,30.07,ESE,117,7.0,10.0,59,0.00,,,0.00,Wunderground v.1.15,2013-06-09 14:38:00,
2013-06-09 10:44:00,71.1,56.0,30.07,East,80,7.0,10.0,59,0.00,,,0.00,Wunderground v.1.15,2013-06-09 14:44:00,
2013-06-09 10:49:00,71.5,55.9,30.07,ESE,121,7.0,10.0,58,0.00,,,0.00,Wunderground v.1.15,2013-06-09 14:49:00,
2013-06-09 10:54:00,71.6,56.5,30.07,East,92,6.0,9.0,59,0.00,,,0.00,Wunderground v.1.15,2013-06-09 14:54:00,
2013-06-09 11:00:00,71.5,56.4,30.07,ESE,108,6.0,9.0,59,0.00,,,0.00,Wunderground v.1.15,2013-06-09 15:00:00,
2013-06-09 11:06:00,71.4,56.8,30.07,East,101,7.0,10.0,60,0.00,,,0.00,Wunderground v.1.15,2013-06-09 15:06:00,
2013-06-09 11:11:00,71.6,57.0,30.07,SSE,149,6.0,6.0,60,0.00,,,0.00,Wunderground v.1.15,2013-06-09 15:11:00,
2013-06-09 11:17:00,72.0,56.9,30.07,ESE,106,6.0,8.0,59,0.00,,,0.00,Wunderground v.1.15,2013-06-09 15:17:00,
2013-06-09 11:22:00,72.5,57.4,30.07,ESE,119,6.0,6.0,59,0.00,,,0.00,Wunderground v.1.15,2013-06-09 15:22:00,
2013-06-09 11:28:00,72.6,57.4,30.07,ESE,117,5.0,7.0,59,0.00,,,0.00,Wunderground v.1.15,2013-06-09 15:28:00,
2013-06-09 11:33:00,72.3,57.2,30.07,East,97,5.0,6.0,59,0.00,,,0.00,Wunderground v.1.15,2013-06-09 15:33:00,
2013-06-09 11:38:00,72.0,56.9,30.07,ESE,111,5.0,8.0,59,0.00,,,0.00,Wunderground v.1.15,2013-06-09 15:38:00,
2013-06-09 11:44:00,72.0,56.9,30.07,ESE,118,4.0,5.0,59,0.00,,,0.00,Wunderground v.1.15,2013-06-09 15:44:00,
2013-06-09 11:49:00,71.7,57.1,30.08,ESE,110,6.0,9.0,60,0.00,,,0.00,Wunderground v.1.15,2013-06-09 15:49:00,
2013-06-09 11:54:00,71.5,56.9,30.08,SE,130,6.0,9.0,60,0.00,,,0.00,Wunderground v.1.15,2013-06-09 15:54:00,
2013-06-09 12:00:00,71.3,57.2,30.08,ESE,115,5.0,5.0,61,0.00,,,0.00,Wunderground v.1.15,2013-06-09 16:00:00,
2013-06-09 12:05:00,71.0,56.9,30.07,ESE,123,6.0,8.0,61,0.00,,,0.00,Wunderground v.1.15,2013-06-09 16:05:00,
2013-06-09 12:11:00,70.9,56.8,30.08,SSE,148,5.0,5.0,61,0.00,,,0.00,Wunderground v.1.15,2013-06-09 16:11:00,
2013-06-09 12:17:00,71.2,57.5,30.07,ESE,107,4.0,8.0,62,0.00,,,0.00,Wunderground v.1.15,2013-06-09 16:17:00,
2013-06-09 12:22:00,71.5,57.3,30.07,East,94,5.0,8.0,61,0.00,,,0.00,Wunderground v.1.15,2013-06-09 16:22:00,
2013-06-09 12:27:00,72.4,57.3,30.07,SE,132,6.0,11.0,59,0.00,,,0.00,Wunderground v.1.15,2013-06-09 16:27:00,
2013-06-09 12:33:00,73.0,57.3,30.07,East,98,7.0,8.0,58,0.00,,,0.00,Wunderground v.1.15,2013-06-09 16:33:00,
2013-06-09 12:38:00,73.4,57.2,30.06,ESE,103,7.0,9.0,57,0.00,,,0.00,Wunderground v.1.15,2013-06-09 16:38:00,
2013-06-09 12:43:00,73.3,57.1,30.06,East,100,7.0,9.0,57,0.00,,,0.00,Wunderground v.1.15,2013-06-09 16:43:00,
2013-06-09 12:49:00,74.1,57.9,30.06,SSE,151,6.0,9.0,57,0.00,,,0.00,Wunderground v.1.15,2013-06-09 16:49:00,
2013-06-09 12:54:00,74.3,57.1,30.06,East,101,6.0,9.0,55,0.00,,,0.00,Wunderground v.1.15,2013-06-09 16:54:00,
2013-06-09 12:59:00,74.0,57.3,30.06,SSE,148,6.0,12.0,56,0.00,,,0.00,Wunderground v.1.15,2013-06-09 16:59:00,
2013-06-09 13:05:00,73.8,57.1,30.06,East,95,7.0,10.0,56,0.00,,,0.00,Wunderground v.1.15,2013-06-09 17:05:00,
2013-06-09 13:10:00,74.0,56.8,30.06,East,101,8.0,10.0,55,0.00,,,0.00,Wunderground v.1.15,2013-06-09 17:10:00,
2013-06-09 13:15:00,74.3,57.1,30.05,ESE,112,8.0,10.0,55,0.00,,,0.00,Wunderground v.1.15,2013-06-09 17:15:00,
2013-06-09 13:20:00,74.6,57.4,30.05,East,95,8.0,9.0,55,0.00,,,0.00,Wunderground v.1.15,2013-06-09 17:20:00,
2013-06-09 13:26:00,74.8,57.5,30.05,SE,143,7.0,9.0,55,0.00,,,0.00,Wunderground v.1.15,2013-06-09 17:26:00,
2013-06-09 13:32:00,75.1,57.3,30.05,ESE,112,7.0,9.0,54,0.00,,,0.00,Wunderground v.1.15,2013-06-09 17:32:00,
2013-06-09 13:37:00,74.7,56.9,30.05,East,101,8.0,11.0,54,0.00,,,0.00,Wunderground v.1.15,2013-06-09 17:37:00,
2013-06-09 13:43:00,74.5,56.8,30.05,ESE,108,9.0,12.0,54,0.00,,,0.00,Wunderground v.1.15,2013-06-09 17:43:00,
2013-06-09 13:48:00,74.3,56.6,30.04,ESE,117,8.0,12.0,54,0.00,,,0.00,Wunderground v.1.15,2013-06-09 17:48:00,
2013-06-09 13:53:00,74.3,56.6,30.05,ESE,107,8.0,10.0,54,0.00,,,0.00,Wunderground v.1.15,2013-06-09 17:53:00,
2013-06-09 13:59:00,74.0,56.3,30.04,East,98,8.0,10.0,54,0.00,,,0.00,Wunderground v.1.15,2013-06-09 17:59:00,
2013-06-09 14:04:00,73.7,56.5,30.04,East,84,7.0,9.0,55,0.00,,,0.00,Wunderground v.1.15,2013-06-09 18:04:00,
2013-06-09 14:10:00,73.5,55.8,30.04,ESE,112,7.0,7.0,54,0.00,,,0.00,Wunderground v.1.15,2013-06-09 18:10:00,
2013-06-09 14:15:00,73.2,55.6,30.04,ESE,108,7.0,10.0,54,0.00,,,0.00,Wunderground v.1.15,2013-06-09 18:15:00,
2013-06-09 14:20:00,73.2,56.1,30.05,ESE,113,8.0,9.0,55,0.00,,,0.00,Wunderground v.1.15,2013-06-09 18:20:00,
2013-06-09 14:25:00,73.2,56.1,30.04,ESE,120,8.0,9.0,55,0.00,,,0.00,Wunderground v.1.15,2013-06-09 18:25:00,
2013-06-09 14:31:00,73.2,56.1,30.04,East,98,8.0,8.0,55,0.00,,,0.00,Wunderground v.1.15,2013-06-09 18:31:00,
2013-06-09 14:37:00,73.0,55.9,30.04,East,98,8.0,9.0,55,0.00,,,0.00,Wunderground v.1.15,2013-06-09 18:37:00,
2013-06-09 14:42:00,72.7,56.1,30.04,East,87,8.0,10.0,56,0.00,,,0.00,Wunderground v.1.15,2013-06-09 18:42:00,
2013-06-09 14:47:00,72.9,55.8,30.04,ENE,76,8.0,10.0,55,0.00,,,0.00,Wunderground v.1.15,2013-06-09 18:47:00,
2013-06-09 14:52:00,72.5,55.9,30.04,East,89,7.0,10.0,56,0.00,,,0.00,Wunderground v.1.15,2013-06-09 18:52:00,
2013-06-09 14:58:00,72.5,55.9,30.03,East,90,8.0,12.0,56,0.00,,,0.00,Wunderground v.1.15,2013-06-09 18:58:00,
2013-06-09 15:03:00,72.4,56.3,30.03,ESE,109,7.0,7.0,57,0.00,,,0.00,Wunderground v.1.15,2013-06-09 19:03:00,
2013-06-09 15:08:00,72.2,56.1,30.03,East,95,6.0,9.0,57,0.00,,,0.00,Wunderground v.1.15,2013-06-09 19:08:00,
2013-06-09 15:14:00,72.0,55.4,30.04,East,86,6.0,10.0,56,0.00,,,0.00,Wunderground v.1.15,2013-06-09 19:14:00,
2013-06-09 15:19:00,71.7,55.7,30.03,East,90,6.0,10.0,57,0.00,,,0.00,Wunderground v.1.15,2013-06-09 19:19:00,
2013-06-09 15:24:00,71.7,55.7,30.03,ESE,113,6.0,9.0,57,0.00,,,0.00,Wunderground v.1.15,2013-06-09 19:24:00,
2013-06-09 15:30:00,71.6,56.0,30.02,East,94,6.0,9.0,58,0.00,,,0.00,Wunderground v.1.15,2013-06-09 19:30:00,
2013-06-09 15:35:00,71.6,56.0,30.02,ESE,112,6.0,10.0,58,0.00,,,0.00,Wunderground v.1.15,2013-06-09 19:35:00,
2013-06-09 15:40:00,71.0,57.3,30.02,ESE,108,6.0,10.0,62,0.00,,,0.00,Wunderground v.1.15,2013-06-09 19:40:00,
2013-06-09 15:45:00,71.1,57.4,30.02,East,97,6.0,8.0,62,0.00,,,0.00,Wunderground v.1.15,2013-06-09 19:45:00,
2013-06-09 15:51:00,71.4,56.3,30.01,East,90,7.0,7.0,59,0.00,,,0.00,Wunderground v.1.15,2013-06-09 19:51:00,
2013-06-09 15:56:00,72.2,56.6,30.01,East,94,7.0,8.0,58,0.00,,,0.00,Wunderground v.1.15,2013-06-09 19:56:00,
2013-06-09 16:02:00,72.9,56.8,30.01,ENE,69,5.0,6.0,57,0.00,,,0.00,Wunderground v.1.15,2013-06-09 20:02:00,
2013-06-09 16:07:00,72.5,56.4,30.01,ESE,109,6.0,10.0,57,0.00,,,0.00,Wunderground v.1.15,2013-06-09 20:07:00,
2013-06-09 16:12:00,73.2,56.6,30.00,East,101,7.0,14.0,56,0.00,,,0.00,Wunderground v.1.15,2013-06-09 20:12:00,
2013-06-09 16:17:00,73.9,56.7,30.00,East,83,7.0,14.0,55,0.00,,,0.00,Wunderground v.1.15,2013-06-09 20:17:00,
2013-06-09 16:23:00,73.7,56.0,30.00,East,81,9.0,13.0,54,0.00,,,0.00,Wunderground v.1.15,2013-06-09 20:23:00,
2013-06-09 16:28:00,73.7,56.0,30.00,ESE,123,9.0,15.0,54,0.00,,,0.00,Wunderground v.1.15,2013-06-09 20:28:00,
2013-06-09 16:33:00,73.7,56.5,29.99,ESE,103,9.0,10.0,55,0.00,,,0.00,Wunderground v.1.15,2013-06-09 20:33:00,
2013-06-09 16:39:00,74.2,57.0,29.99,East,87,8.0,10.0,55,0.00,,,0.00,Wunderground v.1.15,2013-06-09 20:39:00,
2013-06-09 16:44:00,74.6,56.3,29.99,East,94,7.0,9.0,53,0.00,,,0.00,Wunderground v.1.15,2013-06-09 20:44:00,
2013-06-09 16:49:00,74.4,55.6,29.99,East,101,8.0,9.0,52,0.00,,,0.00,Wunderground v.1.15,2013-06-09 20:49:00,
2013-06-09 16:55:00,74.0,55.8,29.99,ESE,113,9.0,13.0,53,0.00,,,0.00,Wunderground v.1.15,2013-06-09 20:55:00,
2013-06-09 17:01:00,73.9,55.7,29.98,ESE,106,8.0,11.0,53,0.00,,,0.00,Wunderground v.1.15,2013-06-09 21:01:00,
2013-06-09 17:07:00,73.5,55.3,29.98,ESE,103,10.0,13.0,53,0.00,,,0.00,Wunderground v.1.15,2013-06-09 21:07:00,
2013-06-09 17:12:00,73.3,55.6,29.98,ESE,106,9.0,11.0,54,0.00,,,0.00,Wunderground v.1.15,2013-06-09 21:12:00,
2013-06-09 17:17:00,73.6,55.9,29.98,ESE,111,8.0,11.0,54,0.00,,,0.00,Wunderground v.1.15,2013-06-09 21:17:00,
2013-06-09 17:23:00,74.0,56.3,29.98,ESE,109,8.0,10.0,54,0.00,,,0.00,Wunderground v.1.15,2013-06-09 21:23:00,
2013-06-09 17:28:00,74.1,56.4,29.98,East,98,8.0,10.0,54,0.00,,,0.00,Wunderground v.1.15,2013-06-09 21:28:00,
2013-06-09 17:33:00,74.1,56.4,29.98,East,98,8.0,13.0,54,0.00,,,0.00,Wunderground v.1.15,2013-06-09 21:33:00,
2013-06-09 17:39:00,74.1,56.4,29.98,ESE,113,9.0,13.0,54,0.00,,,0.00,Wunderground v.1.15,2013-06-09 21:39:00,
2013-06-09 17:44:00,74.2,56.5,29.98,East,95,9.0,11.0,54,0.00,,,0.00,Wunderground v.1.15,2013-06-09 21:44:00,
2013-06-09 17:49:00,74.3,56.1,29.97,East,88,10.0,15.0,53,0.00,,,0.00,Wunderground v.1.15,2013-06-09 21:49:00,
2013-06-09 17:55:00,74.1,56.4,29.98,East,99,10.0,18.0,54,0.00,,,0.00,Wunderground v.1.15,2013-06-09 21:55:00,
2013-06-09 18:00:00,73.9,56.2,29.97,East,80,9.0,9.0,54,0.00,,,0.00,Wunderground v.1.15,2013-06-09 22:00:00,
2013-06-09 18:06:00,74.6,56.9,29.97,ESE,116,8.0,13.0,54,0.00,,,0.00,Wunderground v.1.15,2013-06-09 22:06:00,
2013-06-09 18:11:00,74.4,55.6,29.97,ESE,117,9.0,9.0,52,0.00,,,0.00,Wunderground v.1.15,2013-06-09 22:11:00,
2013-06-09 18:16:00,74.3,56.1,29.97,East,86,10.0,14.0,53,0.00,,,0.00,Wunderground v.1.15,2013-06-09 22:16:00,
2013-06-09 18:21:00,74.3,55.5,29.97,ESE,119,10.0,10.0,52,0.00,,,0.00,Wunderground v.1.15,2013-06-09 22:21:00,
2013-06-09 18:27:00,74.4,55.6,29.97,ESE,103,9.0,11.0,52,0.00,,,0.00,Wunderground v.1.15,2013-06-09 22:27:00,
2013-06-09 18:33:00,74.3,55.5,29.97,East,101,9.0,12.0,52,0.00,,,0.00,Wunderground v.1.15,2013-06-09 22:33:00,
2013-06-09 18:39:00,74.2,54.9,29.96,ESE,102,9.0,12.0,51,0.00,,,0.00,Wunderground v.1.15,2013-06-09 22:39:00,
2013-06-09 18:44:00,74.0,55.3,29.96,ESE,104,9.0,10.0,52,0.00,,,0.00,Wunderground v.1.15,2013-06-09 22:44:00,
2013-06-09 18:49:00,73.8,55.1,29.97,East,92,8.0,11.0,52,0.00,,,0.00,Wunderground v.1.15,2013-06-09 22:49:00,
2013-06-09 18:54:00,73.7,55.0,29.96,East,95,8.0,11.0,52,0.00,,,0.00,Wunderground v.1.15,2013-06-09 22:54:00,
2013-06-09 18:59:00,73.6,54.9,29.96,ESE,111,8.0,15.0,52,0.00,,,0.00,Wunderground v.1.15,2013-06-09 22:59:00,
2013-06-09 19:05:00,73.6,54.9,29.96,East,98,9.0,12.0,52,0.00,,,0.00,Wunderground v.1.15,2013-06-09 23:05:00,
2013-06-09 19:10:00,73.6,54.9,29.96,East,82,10.0,10.0,52,0.00,,,0.00,Wunderground v.1.15,2013-06-09 23:10:00,
2013-06-09 19:15:00,73.5,55.3,29.96,East,96,9.0,10.0,53,0.00,,,0.00,Wunderground v.1.15,2013-06-09 23:15:00,
2013-06-09 19:20:00,73.3,55.6,29.96,East,91,9.0,10.0,54,0.00,,,0.00,Wunderground v.1.15,2013-06-09 23:20:00,
2013-06-09 19:26:00,73.1,55.5,29.96,East,96,9.0,11.0,54,0.00,,,0.00,Wunderground v.1.15,2013-06-09 23:26:00,
2013-06-09 19:32:00,72.9,55.8,29.96,East,88,9.0,13.0,55,0.00,,,0.00,Wunderground v.1.15,2013-06-09 23:32:00,
2013-06-09 19:37:00,72.9,55.8,29.96,East,92,8.0,14.0,55,0.00,,,0.00,Wunderground v.1.15,2013-06-09 23:37:00,
2013-06-09 19:42:00,72.6,56.0,29.97,East,98,8.0,8.0,56,0.00,,,0.00,Wunderground v.1.15,2013-06-09 23:42:00,
2013-06-09 19:47:00,72.4,56.3,29.96,East,94,8.0,11.0,57,0.00,,,0.00,Wunderground v.1.15,2013-06-09 23:47:00,
2013-06-09 19:52:00,72.3,56.7,29.96,East,80,8.0,11.0,58,0.00,,,0.00,Wunderground v.1.15,2013-06-09 23:52:00,
2013-06-09 19:58:00,72.1,56.0,29.96,East,95,9.0,18.0,57,0.00,,,0.00,Wunderground v.1.15,2013-06-09 23:58:00,
2013-06-09 20:03:00,71.9,56.3,29.96,East,88,9.0,9.0,58,0.00,,,0.00,Wunderground v.1.15,2013-06-10 00:03:00,
2013-06-09 20:08:00,71.7,56.1,29.96,ESE,115,7.0,9.0,58,0.00,,,0.00,Wunderground v.1.15,2013-06-10 00:08:00,
2013-06-09 20:14:00,71.6,56.5,29.96,East,81,7.0,11.0,59,0.00,,,0.00,Wunderground v.1.15,2013-06-10 00:14:00,
2013-06-09 20:20:00,71.5,55.9,29.96,East,95,7.0,7.0,58,0.00,,,0.00,Wunderground v.1.15,2013-06-10 00:20:00,
2013-06-09 20:25:00,71.3,56.2,29.96,East,80,7.0,9.0,59,0.00,,,0.00,Wunderground v.1.15,2013-06-10 00:25:00,
2013-06-09 20:30:00,71.2,55.7,29.95,East,101,7.0,7.0,58,0.00,,,0.00,Wunderground v.1.15,2013-06-10 00:30:00,
2013-06-09 20:36:00,71.1,55.6,29.95,East,96,7.0,12.0,58,0.00,,,0.00,Wunderground v.1.15,2013-06-10 00:36:00,
2013-06-09 20:41:00,70.9,55.4,29.96,East,98,7.0,8.0,58,0.00,,,0.00,Wunderground v.1.15,2013-06-10 00:41:00,
2013-06-09 20:46:00,70.7,55.2,29.95,ESE,109,6.0,9.0,58,0.00,,,0.00,Wunderground v.1.15,2013-06-10 00:46:00,
2013-06-09 20:51:00,70.5,55.5,29.95,East,90,5.0,6.0,59,0.00,,,0.00,Wunderground v.1.15,2013-06-10 00:51:00,
2013-06-09 20:57:00,70.4,54.9,29.95,East,98,6.0,11.0,58,0.00,,,0.00,Wunderground v.1.15,2013-06-10 00:57:00,
2013-06-09 21:03:00,70.2,54.7,29.95,East,88,6.0,14.0,58,0.00,,,0.00,Wunderground v.1.15,2013-06-10 01:03:00,
2013-06-09 21:08:00,70.1,54.6,29.95,East,84,7.0,14.0,58,0.00,,,0.00,Wunderground v.1.15,2013-06-10 01:08:00,
2013-06-09 21:13:00,69.9,54.4,29.95,East,93,7.0,8.0,58,0.00,,,0.00,Wunderground v.1.15,2013-06-10 01:13:00,
2013-06-09 21:19:00,69.8,54.4,29.96,East,94,7.0,11.0,58,0.00,,,0.00,Wunderground v.1.15,2013-06-10 01:19:00,
2013-06-09 21:24:00,69.7,54.3,29.96,East,93,8.0,10.0,58,0.00,,,0.00,Wunderground v.1.15,2013-06-10 01:24:00,
2013-06-09 21:29:00,69.6,54.2,29.96,East,101,8.0,14.0,58,0.00,,,0.00,Wunderground v.1.15,2013-06-10 01:29:00,
2013-06-09 21:34:00,69.5,54.1,29.96,ESE,108,7.0,9.0,58,0.00,,,0.00,Wunderground v.1.15,2013-06-10 01:34:00,
2013-06-09 21:40:00,69.3,53.9,29.96,East,101,7.0,7.0,58,0.00,,,0.00,Wunderground v.1.15,2013-06-10 01:40:00,
2013-06-09 21:45:00,69.2,53.8,29.96,East,90,7.0,9.0,58,0.00,,,0.00,Wunderground v.1.15,2013-06-10 01:45:00,
2013-06-09 21:50:00,69.1,53.7,29.96,East,94,7.0,7.0,58,0.00,,,0.00,Wunderground v.1.15,2013-06-10 01:50:00,
2013-06-09 21:56:00,69.0,53.1,29.96,East,101,7.0,8.0,57,0.00,,,0.00,Wunderground v.1.15,2013-06-10 01:56:00,
2013-06-09 22:01:00,69.0,53.1,29.96,ESE,105,6.0,10.0,57,0.00,,,0.00,Wunderground v.1.15,2013-06-10 02:01:00,
2013-06-09 22:07:00,68.9,52.6,29.95,ENE,63,6.0,10.0,56,0.00,,,0.00,Wunderground v.1.15,2013-06-10 02:07:00,
2013-06-09 22:12:00,68.8,52.5,29.96,East,96,6.0,8.0,56,0.00,,,0.00,Wunderground v.1.15,2013-06-10 02:12:00,
2013-06-09 22:17:00,68.7,51.9,29.95,ESE,103,7.0,9.0,55,0.00,,,0.00,Wunderground v.1.15,2013-06-10 02:17:00,
2013-06-09 22:22:00,68.7,51.9,29.96,East,96,7.0,8.0,55,0.00,,,0.00,Wunderground v.1.15,2013-06-10 02:22:00,
2013-06-09 22:28:00,68.5,51.7,29.96,ESE,109,7.0,9.0,55,0.00,,,0.00,Wunderground v.1.15,2013-06-10 02:28:00,
2013-06-09 22:33:00,68.3,51.5,29.95,East,91,7.0,11.0,55,0.00,,,0.00,Wunderground v.1.15,2013-06-10 02:33:00,
2013-06-09 22:38:00,68.2,51.4,29.96,East,100,7.0,11.0,55,0.00,,,0.00,Wunderground v.1.15,2013-06-10 02:38:00,
2013-06-09 22:44:00,68.1,51.3,29.95,ESE,110,7.0,11.0,55,0.00,,,0.00,Wunderground v.1.15,2013-06-10 02:44:00,
2013-06-09 22:49:00,67.9,51.6,29.95,East,100,7.0,11.0,56,0.00,,,0.00,Wunderground v.1.15,2013-06-10 02:49:00,
2013-06-09 22:54:00,67.8,51.5,29.95,East,100,7.0,9.0,56,0.00,,,0.00,Wunderground v.1.15,2013-06-10 02:54:00,
2013-06-09 23:00:00,67.6,51.8,29.94,East,84,6.0,8.0,57,0.00,,,0.00,Wunderground v.1.15,2013-06-10 03:00:00,
2013-06-09 23:06:00,67.5,51.7,29.94,ESE,102,7.0,9.0,57,0.00,,,0.00,Wunderground v.1.15,2013-06-10 03:06:00,
2013-06-09 23:12:00,67.4,52.1,29.94,ESE,119,7.0,8.0,58,0.00,,,0.00,Wunderground v.1.15,2013-06-10 03:12:00,
2013-06-09 23:17:00,67.2,51.9,29.94,ESE,115,7.0,13.0,58,0.00,,,0.00,Wunderground v.1.15,2013-06-10 03:17:00,
2013-06-09 23:23:00,67.1,52.3,29.94,East,92,7.0,8.0,59,0.00,,,0.00,Wunderground v.1.15,2013-06-10 03:23:00,
2013-06-09 23:28:00,67.0,52.2,29.93,East,101,7.0,9.0,59,0.00,,,0.00,Wunderground v.1.15,2013-06-10 03:28:00,
2013-06-09 23:33:00,66.9,52.6,29.93,ESE,115,6.0,7.0,60,0.00,,,0.00,Wunderground v.1.15,2013-06-10 03:33:00,
2013-06-09 23:39:00,66.8,52.5,29.93,SE,124,6.0,8.0,60,0.00,,,0.00,Wunderground v.1.15,2013-06-10 03:39:00,
2013-06-09 23:44:00,66.8,52.5,29.94,East,97,6.0,9.0,60,0.00,,,0.00,Wunderground v.1.15,2013-06-10 03:44:00,
2013-06-09 23:49:00,66.7,52.8,29.93,ESE,110,7.0,10.0,61,0.00,,,0.00,Wunderground v.1.15,2013-06-10 03:49:00,
2013-06-09 23:55:00,66.7,52.8,29.94,SE,131,6.0,7.0,61,0.00,,,0.00,Wunderground v.1.15,2013-06-10 03:55:00,